Location: Bergnershof
(48.9468°N, 10.9431°E)
Time: 23:41:06
(UTC+00:00)

Cosmos 1844 Rocket - Pass Details

Date: 17 June 2021
Orbit: 823 x 846 km, 71.0° (Epoch: 30 July)

Event Time Altitude Azimuth Distance (km) Brightness Sun altitude
Rises 22:01:19 0° 321° (NW) 3,413 7.2 -15.7°
Reaches altitude 10° 22:04:21 10° 305° (NW) 2,475 5.9 -15.8°
Maximum altitude 22:08:23 20° 260° (W) 1,843 4.5 -16.0°
Enters shadow 22:12:18 10° 215° (SW) 2,433 4.7 -16.2°
